星链-31305 (STARLINK-31305 )

导读 | 星芒AI

STARLINK-31305 是 SpaceX 星链(Starlink)卫星互联网项目中的一颗低轨通信卫星。该卫星属于星链计划的第三批部署卫星之一,旨在为全球用户提供高速、低延迟的互联网服务。它运行在约 550 公里的近地轨道上,采用先进的通信技术,支持宽带数据传输。作为星链星座的一部分,STARLINK-31305 与其他数千颗卫星协同工作,提升全球网络覆盖,特别是在偏远和网络基础设施薄弱的地区。

基本信息
目录编号:
59232
目录名称:
STARLINK-31305
国际标识:
2024-049B
轨道中心:
EARTH
卫星名称:
星链-31305
卫星全名:
星链-31305 (STARLINK-31305 )
卫星状态:
在轨 (已飞行643 天)
发射日期:
2024-03-16 UTC
国别 :
美国 (US)
星等 :
--
轨道信息
数据来源 国际轨道数据 AOE轨道数据
星历时间 2025-12-19T08:53:06+0800
22小时前
查看轨道信息
2025-12-14T21:00:00+0800
5天前
查看轨道信息
半长轴 6861.173km 6861.163km
偏心率 0.0001135 0.0003141
轨道倾角 43.000° 43.001°
近地点辐角 270.764° 192.281°
升交点赤经 238.800° 264.187°
平近点角 89.308° 258.401°
近地点 482.257km 480.872km
远地点 483.815km 485.184km
周期 94.266分钟 94.266分钟
每日圈数 15.275846 15.27588
详细信息
固有亮度:
5
最大亮度:
0.3
卫星平台:
Starlink v2.0 mini
覆盖范围:
全球
运营商:
太空探索技术公司
运营商所在国:
美国
制造商(研发单位):
太空探索技术公司
制造商所在国:
美国
使用方式:
暂无
卫星简介
星链(Starlink)计划是由太空探索技术公司(SpaceX)提出的一个巨型低轨卫星互联网星座项目,计划在2019年至2024年间在太空搭建由约1.2万颗卫星组成的“星链”网络,其中1584颗将部署在地球上空550千米处的近地轨道,并从2020年开始工作。该卫星仍在工作。
2D轨道图
3D轨道图
轨道高度分析图
轨道倾角分析图
轨道综合分析图
查看轨道综合分析图